CSV4 weather

Fort Saskatchewan Community Hospital Heliport
Fort Saskatchewan, Alberta, Canada

Public forecast

Using degrees Celsius for public forecast. Weather courtesy of forecast.io.

METAR (pilot weather report)

Closest report is Edmonton (CFB Namao) Heliport, 9.5 nm (17.5 km) W. Retrieved 2019/07/22 09:00 UTC (27 minutes ago):

CYED 220900Z AUTO 10005KT 9SM CLR 13/13 A3010 RMK SLP196

TAF (pilot weather forecast)

Forecast is more than 12 hours old.

Closest forecast is Edmonton (CFB Namao) Heliport, 9.5 nm (17.5 km) W. Retrieved 2019/07/19 00:33 UTC (3 days ago):

TAF TAF CYED 192330Z 2000/2012 03005KT P6SM SCT060 BKN240 TEMPO 2000/2001 VRB15G30KT 1SM +TSRA BR OVC060CB FM200100 33005KT P6SM SCT060 BKN240 TEMPO 2001/2006 5SM -SHRA BR BKN060 BKN240 PROB30 2001/2004 VRB15G30KT 1SM +TSRA BR OVC060CB FM200600 33005KT P6SM SCT004 BKN040 TEMPO 2006/2012 3SM -SHRA BR BKN004 OVC040 RMK FCST BASED ON AUTO OBS. PCPN SENSORS INOP. NXT FCST BY 200600Z